Vilhena Airport
SBVH : now visible

Airfield :











YOU CAN JOIN US ON...

 
LOGIN :

Register | Disclaimer

   EN    FR    IT 

 









Legend :    VFR   Marginal VFR   IFR   Intensive IFR   Very Intensive IFR
Visi :
Ceiling :
>= 8 km
>= 3000ft
5 to 8 km
1000 to 3000 ft
1500m to 5 km
500 to 1000 ft
800 to 1500m
200 to 500 ft
< 800m
< 200 ft
Symbols :   Thunderstorms  Fog  Heavy snow  Heavy precipitations  Wind > 20 kt






- Airport Elevation : 2018 ft
- IATA code : BVH


SBVH - Vilhena

CURRENT METAR :
  • 202000Z VRB01KT 9999 TS VCSH BKN035 FEW040CB BKN070 27/24 Q1009

EXPIRED METARs :
  • 201900Z 22004KT 170V270 8000 -RA BKN020 BKN035 FEW040TCU 26/23 Q1010
  • 201800Z VRB03KT 9999 SCT025 SCT035 FEW040TCU 28/23 Q1010

TAF TAF SBVH
Valid from the 20 at 18:00 until the 21 at 06:00 UTC


201500Z 2018/2106 30005KT 9999 SCT025 TX25/2019Z TN23/2106Z
PROB30 2019/2022 23015KT 5000 TSRA BKN020 FEW030CB RMK PGY



MET'MAP, your aeronautical weather chart ! - Copyright ORBIFLY December 2007 - Disclaimer

ORBIFLY MET'MAP TEAM :

Programming & Development : Alexandra Zaïnal
Concept & original design : Baudouin d'Aumeries
Assistance for programming : Marc-Olivier Méhu
Technical & hardware support : Manuel Goepfert

Contact : metmap@orbifly.com




SOURCES & CREDITS :

   NOAA       Earth
Advisory